Find Starlink 34249

NORAD ID: 65376 Int'l Des: 2025-190 Owner: SPXS Country: US Constellation: starlink operational
LEOCIRCULAR

現在のビュー

3D地球を読み込み中...

Starlink 34249について

説明を読み込み中...

次回通過

Passes for default location (London). Set your location on the main map for personalized predictions.

高度履歴

Loading altitude history...

軌道要素

1 65376U 25190AB 26151.18835103 .00043538 00000-0 12917-2 0 9993
2 65376 53.1579 144.4376 0001350 82.7798 277.3358 15.34414247 42813
Epoch: May 31, 2026 • Age: 7 hours

現在のステータス

高度 466.8 km
速度 7.64 km/s
衛星直下点 46.96°N, 141.25°E
打ち上げ日 Aug 28, 2025
運用期間 0.7 years
タイプ internet

技術仕様

分類 Payload
質量 575.00 kg
乾燥質量 530.00 kg
総質量 575.00 kg
長さ 0.30 m
直径 4.10 m
スパン 29.00 m
形状 Box + pan
製造者 SPXS
バスタイプ Starlink V2MO
フェーズステータス In Orbit
所有者/国 SPXS/US

Most Searched